Index of /20260429/WXO-DD/model_gdps/15km/12/237
Name Last modified Size Description
Parent Directory -
20260429T12Z_MSC_GDPS_AirTemp_AGL-120m_LatLon0.15_PT237H.grib2 2026-04-29 16:42 906K
20260429T12Z_MSC_GDPS_AirTemp_AGL-2m_LatLon0.15_PT237H.grib2 2026-04-29 16:42 1.0M
20260429T12Z_MSC_GDPS_AirTemp_AGL-40m_LatLon0.15_PT237H.grib2 2026-04-29 16:42 808K
20260429T12Z_MSC_GDPS_AirTemp_AGL-80m_LatLon0.15_PT237H.grib2 2026-04-29 16:42 915K
20260429T12Z_MSC_GDPS_AirTemp_IsbL-0001_LatLon0.15_PT237H.grib2 2026-04-29 16:42 656K
20260429T12Z_MSC_GDPS_AirTemp_IsbL-0005_LatLon0.15_PT237H.grib2 2026-04-29 16:42 701K
20260429T12Z_MSC_GDPS_AirTemp_IsbL-0500_LatLon0.15_PT237H.grib2 2026-04-29 16:42 1.0M
20260429T12Z_MSC_GDPS_AirTemp_IsbL-0700_LatLon0.15_PT237H.grib2 2026-04-29 16:42 947K
20260429T12Z_MSC_GDPS_AirTemp_IsbL-0850_LatLon0.15_PT237H.grib2 2026-04-29 16:42 1.2M
20260429T12Z_MSC_GDPS_AirTemp_IsbL-0925_LatLon0.15_PT237H.grib2 2026-04-29 16:42 1.1M
20260429T12Z_MSC_GDPS_AirTemp_IsbL-1000_LatLon0.15_PT237H.grib2 2026-04-29 16:42 1.1M
20260429T12Z_MSC_GDPS_Albedo_Sfc_LatLon0.15_PT237H.grib2 2026-04-29 16:42 242K
20260429T12Z_MSC_GDPS_ConvectivePrecip-Accum_Sfc_LatLon0.15_PT237H.grib2 2026-04-29 16:42 3.8M
20260429T12Z_MSC_GDPS_DewPointDepression_AGL-2m_LatLon0.15_PT237H.grib2 2026-04-29 16:42 762K
20260429T12Z_MSC_GDPS_DewPointDepression_IsbL-0500_LatLon0.15_PT237H.grib2 2026-04-29 16:42 1.0M
20260429T12Z_MSC_GDPS_DewPointDepression_IsbL-0700_LatLon0.15_PT237H.grib2 2026-04-29 16:42 1.1M
20260429T12Z_MSC_GDPS_DewPointDepression_IsbL-0850_LatLon0.15_PT237H.grib2 2026-04-29 16:42 1.2M
20260429T12Z_MSC_GDPS_DewPointDepression_IsbL-0925_LatLon0.15_PT237H.grib2 2026-04-29 16:42 1.0M
20260429T12Z_MSC_GDPS_DewPointDepression_IsbL-1000_LatLon0.15_PT237H.grib2 2026-04-29 16:42 966K
20260429T12Z_MSC_GDPS_DewPoint_AGL-2m_LatLon0.15_PT237H.grib2 2026-04-29 16:42 610K
20260429T12Z_MSC_GDPS_DownwardLongwaveRadiationFlux-Accum_Sfc_LatLon0.15_PT237H.grib2 2026-04-29 16:42 742K
20260429T12Z_MSC_GDPS_DownwardShortwaveRadiationFlux-Accum_Sfc_LatLon0.15_PT237H.grib2 2026-04-29 16:42 919K
20260429T12Z_MSC_GDPS_FreezingRain-Accum_Sfc_LatLon0.15_PT237H.grib2 2026-04-29 16:42 459K
20260429T12Z_MSC_GDPS_GeopotentialHeight_IsbL-0001_LatLon0.15_PT237H.grib2 2026-04-29 16:42 443K
20260429T12Z_MSC_GDPS_GeopotentialHeight_IsbL-0005_LatLon0.15_PT237H.grib2 2026-04-29 16:42 498K
20260429T12Z_MSC_GDPS_GeopotentialHeight_IsbL-0500_LatLon0.15_PT237H.grib2 2026-04-29 16:42 538K
20260429T12Z_MSC_GDPS_GeopotentialHeight_IsbL-0700_LatLon0.15_PT237H.grib2 2026-04-29 16:42 694K
20260429T12Z_MSC_GDPS_GeopotentialHeight_IsbL-0850_LatLon0.15_PT237H.grib2 2026-04-29 16:42 718K
20260429T12Z_MSC_GDPS_GeopotentialHeight_IsbL-0925_LatLon0.15_PT237H.grib2 2026-04-29 16:42 737K
20260429T12Z_MSC_GDPS_GeopotentialHeight_IsbL-1000_LatLon0.15_PT237H.grib2 2026-04-29 16:42 793K
20260429T12Z_MSC_GDPS_IcePellets-Accum_Sfc_LatLon0.15_PT237H.grib2 2026-04-29 16:42 188K
20260429T12Z_MSC_GDPS_LatentHeatNetFlux_Sfc_LatLon0.15_PT237H.grib2 2026-04-29 16:42 743K
20260429T12Z_MSC_GDPS_NetLongwaveRadiationFlux-Accum_Sfc_LatLon0.15_PT237H.grib2 2026-04-29 16:42 966K
20260429T12Z_MSC_GDPS_NetShortwaveRadiationFlux-Accum_Sfc_LatLon0.15_PT237H.grib2 2026-04-29 16:42 918K
20260429T12Z_MSC_GDPS_O3MixingRatio_Sfc_LatLon0.15_PT237H.grib2 2026-04-29 16:52 2.3M
20260429T12Z_MSC_GDPS_O3_EAtm_LatLon0.15_PT237H.grib2 2026-04-29 16:52 2.4M
20260429T12Z_MSC_GDPS_PlanetaryBoundaryLayerHeight_Sfc_LatLon0.15_PT237H.grib2 2026-04-29 16:42 2.5M
20260429T12Z_MSC_GDPS_Precip-Accum_Sfc_LatLon0.15_PT237H.grib2 2026-04-29 16:42 5.2M
20260429T12Z_MSC_GDPS_PrecipRate_Sfc_LatLon0.15_PT237H.grib2 2026-04-29 16:42 3.2M
20260429T12Z_MSC_GDPS_Pressure_MSL_LatLon0.15_PT237H.grib2 2026-04-29 16:42 724K
20260429T12Z_MSC_GDPS_Pressure_Sfc_LatLon0.15_PT237H.grib2 2026-04-29 16:42 1.1M
20260429T12Z_MSC_GDPS_RadiativeTemp_Sfc_LatLon0.15_PT237H.grib2 2026-04-29 16:42 506K
20260429T12Z_MSC_GDPS_Rain-Accum_Sfc_LatLon0.15_PT237H.grib2 2026-04-29 16:42 4.1M
20260429T12Z_MSC_GDPS_RelativeHumidity_AGL-2m_LatLon0.15_PT237H.grib2 2026-04-29 16:42 1.0M
20260429T12Z_MSC_GDPS_Runoff-Accum_Sfc_LatLon0.15_PT237H.grib2 2026-04-29 16:42 143K
20260429T12Z_MSC_GDPS_SensibleHeatNetFlux_Sfc_LatLon0.15_PT237H.grib2 2026-04-29 16:42 501K
20260429T12Z_MSC_GDPS_Snow-Accum_Sfc_LatLon0.15_PT237H.grib2 2026-04-29 16:42 2.2M
20260429T12Z_MSC_GDPS_SnowDepth_Sfc_LatLon0.15_PT237H.grib2 2026-04-29 16:42 1.7M
20260429T12Z_MSC_GDPS_SoilTemp_DBS-0to10cm_LatLon0.15_PT237H.grib2 2026-04-29 16:42 515K
20260429T12Z_MSC_GDPS_SoilTemp_Sfc_LatLon0.15_PT237H.grib2 2026-04-29 16:42 586K
20260429T12Z_MSC_GDPS_SoilVolumetricWaterContent_DBS-0to10cm_LatLon0.15_PT237H.grib2 2026-04-29 16:42 595K
20260429T12Z_MSC_GDPS_SoilVolumetricWaterContent_DBS-0to1cm_LatLon0.15_PT237H.grib2 2026-04-29 16:42 650K
20260429T12Z_MSC_GDPS_SpecificHumidity_AGL-120m_LatLon0.15_PT237H.grib2 2026-04-29 16:42 1.1M
20260429T12Z_MSC_GDPS_SpecificHumidity_AGL-2m_LatLon0.15_PT237H.grib2 2026-04-29 16:42 1.2M
20260429T12Z_MSC_GDPS_SpecificHumidity_AGL-40m_LatLon0.15_PT237H.grib2 2026-04-29 16:42 1.1M
20260429T12Z_MSC_GDPS_SpecificHumidity_AGL-80m_LatLon0.15_PT237H.grib2 2026-04-29 16:42 1.1M
20260429T12Z_MSC_GDPS_SpecificHumidity_IsbL-0001_LatLon0.15_PT237H.grib2 2026-04-29 16:42 1.1M
20260429T12Z_MSC_GDPS_SpecificHumidity_IsbL-0005_LatLon0.15_PT237H.grib2 2026-04-29 16:42 1.0M
20260429T12Z_MSC_GDPS_SpecificHumidity_IsbL-0500_LatLon0.15_PT237H.grib2 2026-04-29 16:42 1.5M
20260429T12Z_MSC_GDPS_SpecificHumidity_IsbL-0700_LatLon0.15_PT237H.grib2 2026-04-29 16:42 1.6M
20260429T12Z_MSC_GDPS_SpecificHumidity_IsbL-0850_LatLon0.15_PT237H.grib2 2026-04-29 16:42 2.0M
20260429T12Z_MSC_GDPS_SpecificHumidity_IsbL-0925_LatLon0.15_PT237H.grib2 2026-04-29 16:42 1.6M
20260429T12Z_MSC_GDPS_SpecificHumidity_IsbL-1000_LatLon0.15_PT237H.grib2 2026-04-29 16:42 1.5M
20260429T12Z_MSC_GDPS_SpecificHumidity_Sfc_LatLon0.15_PT237H.grib2 2026-04-29 16:42 691K
20260429T12Z_MSC_GDPS_Thickness_IsbL-0850to0700_LatLon0.15_PT237H.grib2 2026-04-29 16:42 471K
20260429T12Z_MSC_GDPS_Thickness_IsbL-1000to0500_LatLon0.15_PT237H.grib2 2026-04-29 16:42 376K
20260429T12Z_MSC_GDPS_Thickness_IsbL-1000to0850_LatLon0.15_PT237H.grib2 2026-04-29 16:42 494K
20260429T12Z_MSC_GDPS_TotalCloudCover_Sfc_LatLon0.15_PT237H.grib2 2026-04-29 16:42 842K
20260429T12Z_MSC_GDPS_UVIndex-ClearSky_Sfc_LatLon0.15_PT237H.grib2 2026-04-29 16:52 1.1M
20260429T12Z_MSC_GDPS_UVIndex_Sfc_LatLon0.15_PT237H.grib2 2026-04-29 16:52 1.5M
20260429T12Z_MSC_GDPS_UpwardLongwaveRadiationFlux_NTAtm_LatLon0.15_PT237H.grib2 2026-04-29 16:42 841K
20260429T12Z_MSC_GDPS_VerticalVelocity_IsbL-0500_LatLon0.15_PT237H.grib2 2026-04-29 16:42 1.0M
20260429T12Z_MSC_GDPS_VerticalVelocity_IsbL-0700_LatLon0.15_PT237H.grib2 2026-04-29 16:42 1.1M
20260429T12Z_MSC_GDPS_VerticalVelocity_IsbL-0850_LatLon0.15_PT237H.grib2 2026-04-29 16:42 1.3M
20260429T12Z_MSC_GDPS_WindDir_AGL-10m_LatLon0.15_PT237H.grib2 2026-04-29 16:42 1.3M
20260429T12Z_MSC_GDPS_WindDir_AGL-120m_LatLon0.15_PT237H.grib2 2026-04-29 16:42 1.3M
20260429T12Z_MSC_GDPS_WindDir_AGL-40m_LatLon0.15_PT237H.grib2 2026-04-29 16:42 1.4M
20260429T12Z_MSC_GDPS_WindDir_AGL-80m_LatLon0.15_PT237H.grib2 2026-04-29 16:42 1.3M
20260429T12Z_MSC_GDPS_WindDir_IsbL-0001_LatLon0.15_PT237H.grib2 2026-04-29 16:42 658K
20260429T12Z_MSC_GDPS_WindDir_IsbL-0005_LatLon0.15_PT237H.grib2 2026-04-29 16:42 817K
20260429T12Z_MSC_GDPS_WindDir_IsbL-0500_LatLon0.15_PT237H.grib2 2026-04-29 16:42 1.3M
20260429T12Z_MSC_GDPS_WindDir_IsbL-0700_LatLon0.15_PT237H.grib2 2026-04-29 16:42 1.6M
20260429T12Z_MSC_GDPS_WindDir_IsbL-0850_LatLon0.15_PT237H.grib2 2026-04-29 16:42 1.9M
20260429T12Z_MSC_GDPS_WindDir_IsbL-0925_LatLon0.15_PT237H.grib2 2026-04-29 16:42 1.9M
20260429T12Z_MSC_GDPS_WindDir_IsbL-1000_LatLon0.15_PT237H.grib2 2026-04-29 16:42 2.0M
20260429T12Z_MSC_GDPS_WindGust-Max_AGL-10m_LatLon0.15_PT237H.grib2 2026-04-29 16:42 2.2M
20260429T12Z_MSC_GDPS_WindGust-Min_AGL-10m_LatLon0.15_PT237H.grib2 2026-04-29 16:42 2.2M
20260429T12Z_MSC_GDPS_WindGust_AGL-10m_LatLon0.15_PT237H.grib2 2026-04-29 16:42 2.2M
20260429T12Z_MSC_GDPS_WindSpeed_AGL-10m_LatLon0.15_PT237H.grib2 2026-04-29 16:42 1.1M
20260429T12Z_MSC_GDPS_WindSpeed_AGL-120m_LatLon0.15_PT237H.grib2 2026-04-29 16:42 1.2M
20260429T12Z_MSC_GDPS_WindSpeed_AGL-40m_LatLon0.15_PT237H.grib2 2026-04-29 16:42 1.2M
20260429T12Z_MSC_GDPS_WindSpeed_AGL-80m_LatLon0.15_PT237H.grib2 2026-04-29 16:42 1.2M
20260429T12Z_MSC_GDPS_WindSpeed_IsbL-0001_LatLon0.15_PT237H.grib2 2026-04-29 16:42 651K
20260429T12Z_MSC_GDPS_WindSpeed_IsbL-0005_LatLon0.15_PT237H.grib2 2026-04-29 16:42 694K
20260429T12Z_MSC_GDPS_WindSpeed_IsbL-0500_LatLon0.15_PT237H.grib2 2026-04-29 16:42 1.1M
20260429T12Z_MSC_GDPS_WindSpeed_IsbL-0700_LatLon0.15_PT237H.grib2 2026-04-29 16:42 1.5M
20260429T12Z_MSC_GDPS_WindSpeed_IsbL-0850_LatLon0.15_PT237H.grib2 2026-04-29 16:42 1.7M
20260429T12Z_MSC_GDPS_WindSpeed_IsbL-0925_LatLon0.15_PT237H.grib2 2026-04-29 16:42 1.9M
20260429T12Z_MSC_GDPS_WindSpeed_IsbL-1000_LatLon0.15_PT237H.grib2 2026-04-29 16:42 1.8M
20260429T12Z_MSC_GDPS_WindU_AGL-10m_LatLon0.15_PT237H.grib2 2026-04-29 16:42 1.3M
20260429T12Z_MSC_GDPS_WindU_AGL-120m_LatLon0.15_PT237H.grib2 2026-04-29 16:42 964K
20260429T12Z_MSC_GDPS_WindU_AGL-40m_LatLon0.15_PT237H.grib2 2026-04-29 16:42 961K
20260429T12Z_MSC_GDPS_WindU_AGL-80m_LatLon0.15_PT237H.grib2 2026-04-29 16:42 965K
20260429T12Z_MSC_GDPS_WindU_IsbL-0001_LatLon0.15_PT237H.grib2 2026-04-29 16:42 505K
20260429T12Z_MSC_GDPS_WindU_IsbL-0005_LatLon0.15_PT237H.grib2 2026-04-29 16:42 693K
20260429T12Z_MSC_GDPS_WindU_IsbL-0500_LatLon0.15_PT237H.grib2 2026-04-29 16:42 1.1M
20260429T12Z_MSC_GDPS_WindU_IsbL-0700_LatLon0.15_PT237H.grib2 2026-04-29 16:42 1.2M
20260429T12Z_MSC_GDPS_WindU_IsbL-0850_LatLon0.15_PT237H.grib2 2026-04-29 16:42 1.4M
20260429T12Z_MSC_GDPS_WindU_IsbL-0925_LatLon0.15_PT237H.grib2 2026-04-29 16:42 1.5M
20260429T12Z_MSC_GDPS_WindU_IsbL-1000_LatLon0.15_PT237H.grib2 2026-04-29 16:42 1.4M
20260429T12Z_MSC_GDPS_WindV_AGL-10m_LatLon0.15_PT237H.grib2 2026-04-29 16:42 1.3M
20260429T12Z_MSC_GDPS_WindV_AGL-120m_LatLon0.15_PT237H.grib2 2026-04-29 16:42 967K
20260429T12Z_MSC_GDPS_WindV_AGL-40m_LatLon0.15_PT237H.grib2 2026-04-29 16:42 962K
20260429T12Z_MSC_GDPS_WindV_AGL-80m_LatLon0.15_PT237H.grib2 2026-04-29 16:42 967K
20260429T12Z_MSC_GDPS_WindV_IsbL-0001_LatLon0.15_PT237H.grib2 2026-04-29 16:42 723K
20260429T12Z_MSC_GDPS_WindV_IsbL-0005_LatLon0.15_PT237H.grib2 2026-04-29 16:42 864K
20260429T12Z_MSC_GDPS_WindV_IsbL-0500_LatLon0.15_PT237H.grib2 2026-04-29 16:42 1.1M
20260429T12Z_MSC_GDPS_WindV_IsbL-0700_LatLon0.15_PT237H.grib2 2026-04-29 16:42 1.2M
20260429T12Z_MSC_GDPS_WindV_IsbL-0850_LatLon0.15_PT237H.grib2 2026-04-29 16:42 1.4M
20260429T12Z_MSC_GDPS_WindV_IsbL-0925_LatLon0.15_PT237H.grib2 2026-04-29 16:42 1.4M
20260429T12Z_MSC_GDPS_WindV_IsbL-1000_LatLon0.15_PT237H.grib2 2026-04-29 16:42 1.4M